Location: ??
(34.7707°N, 135.6540°E)
Time: 18:45:37
(UTC+00:00)

Cosmos 1975 Rocket - Pass Details

Date: 09 April 2020
Orbit: 603 x 635 km, 82.5° (Epoch: 06 June)

Event Time Altitude Azimuth Distance (km) Brightness Sun altitude
Rises 19:28:47 0° 182° (S) 2,849 6.2 -13.4°
Reaches altitude 10° 19:30:59 10° 181° (S) 1,953 5.4 -13.0°
Maximum altitude 19:35:17 77° 96° (E) 632 3.2 -12.2°
Drops below altitude 10° 19:39:41 10° 10° (N) 1,986 6.0 -11.3°
Sets 19:41:56 0° 9° (N) 2,901 6.9 -10.9°
